Vernal, UT

6:00 AM MST on November 15, 2019 (GMT -0700)
Vernal

Weather History for KVEL - June, 2019

Change the Weather History Date:

Tuesday, June 4, 2019

  Actual Average Record
Temperature  
Mean Temperature 63 °F 62 °F  
Max Temperature 81 °F 76 °F 95 °F (1977)
Min Temperature 45 °F 48 °F 27 °F (1943)
Degree Days  
Heating Degree Days 2 4  
Month to date heating degree days 9 18  
Since 1 June heating degree days 9 18  
Since 1 July heating degree days 7490 7166  
Cooling Degree Days 0 1  
Month to date cooling degree days 0 4  
Year to date cooling degree days 1 13  
Since 1 June cooling degree days 0 4  
Growing Degree Days 13 (Base 50)    
Moisture  
Dew Point 40 °F    
Average Humidity 44    
Maximum Humidity 73    
Minimum Humidity 23    
Precipitation  
Precipitation 0.00 in 0.03 in 0.84 in (2008)
Month to date precipitation 0.00 0.12  
Year to date precipitation 7.42 3.53  
Sea Level Pressure  
Sea Level Pressure 29.93 in    
Wind  
Wind Speed 4 mph ()    
Max Wind Speed 16 mph    
Max Gust Speed 23 mph    
Visibility 10.0 miles    
Events      
T = Trace of Precipitation, MM = Missing Value Source: Averaged Metar Reports

Daily Weather History Graph

Daily Weather History Graph

Search for Another Location

Airport or City:

Astronomy

Jun. 04, 2019 Rise Set
Actual Time 5:48 AM MDT 8:44 PM MDT
Civil Twilight 5:16 AM MDT 9:16 PM MDT
Nautical Twilight 4:35 AM MDT 9:58 PM MDT
Astronomical Twilight 3:47 AM MDT 10:46 PM MDT
Moon 7:00 AM MDT (6/4) 10:15 PM MDT (6/4)
Length of Visible Light 16h 00m
Length of Day
14h 55m
New Moon, 2% of the Moon is Illuminated
Jun 4
New Moon
Jun 10
First Quarter
Jun 17
Full
Jun 25
Last Quarter
Jul 2
New

Hourly Weather History & Observations

Time (MDT) Temp. Windchill Dew Point Humidity Pressure Visibility Wind Dir Wind Speed Gust Speed Precip Events Conditions
12:53 AM 51.1 °F - 37.9 °F 61% 29.92 in 10.0 mi West 5.8 mph - N/A   Clear
1:53 AM 51.1 °F - 37.9 °F 61% 29.91 in 10.0 mi WSW 4.6 mph - N/A   Clear
2:53 AM 48.0 °F - 37.9 °F 68% 29.93 in 10.0 mi WNW 4.6 mph - N/A   Clear
3:53 AM 48.0 °F - 37.9 °F 68% 29.95 in 10.0 mi West 3.5 mph - N/A   Clear
4:53 AM 48.0 °F - 37.0 °F 66% 29.95 in 10.0 mi West 4.6 mph - N/A   Clear
5:53 AM 46.0 °F 44.8 °F 37.9 °F 73% 29.97 in 10.0 mi WSW 3.5 mph - N/A   Clear
6:53 AM 52.0 °F - 41.0 °F 66% 29.96 in 10.0 mi Calm Calm - N/A   Clear
7:53 AM 59.0 °F - 41.0 °F 51% 29.97 in 10.0 mi Calm Calm - N/A   Clear
8:53 AM 62.1 °F - 43.0 °F 50% 29.98 in 10.0 mi Variable 3.5 mph - N/A   Clear
9:53 AM 64.9 °F - 44.1 °F 47% 29.99 in 10.0 mi Variable 3.5 mph - N/A   Clear
10:53 AM 68.0 °F - 44.1 °F 42% 29.98 in 10.0 mi Calm Calm - N/A   Clear
11:53 AM 71.1 °F - 45.0 °F 39% 29.97 in 10.0 mi Variable 5.8 mph - N/A   Clear
12:53 PM 73.9 °F - 41.0 °F 30% 29.95 in 10.0 mi Variable 3.5 mph - N/A   Clear
1:53 PM 75.9 °F - 39.9 °F 27% 29.93 in 10.0 mi Calm Calm - N/A   Clear
2:53 PM 77.0 °F - 37.9 °F 24% 29.91 in 10.0 mi Variable 3.5 mph - N/A   Clear
3:53 PM 79.0 °F - 37.9 °F 23% 29.89 in 10.0 mi Variable 3.5 mph - N/A   Clear
4:53 PM 75.9 °F - 37.9 °F 25% 29.89 in 10.0 mi Variable 6.9 mph - N/A   Partly Cloudy
5:53 PM 73.9 °F - 42.1 °F 32% 29.89 in 10.0 mi North 6.9 mph - N/A   Clear
6:53 PM 78.1 °F - 37.0 °F 23% 29.85 in 10.0 mi North 6.9 mph - N/A   Clear
7:53 PM 73.9 °F - 37.9 °F 27% 29.85 in 10.0 mi Calm Calm - N/A   Clear
8:53 PM 69.1 °F - 41.0 °F 36% 29.88 in 10.0 mi North 12.7 mph - N/A   Clear
9:53 PM 68.0 °F - 39.0 °F 35% 29.89 in 10.0 mi North 15.0 mph - N/A   Clear
10:53 PM 66.0 °F - 39.0 °F 37% 29.91 in 10.0 mi SSE 4.6 mph - N/A   Clear
11:53 PM 63.0 °F - 39.9 °F 43% 29.91 in 10.0 mi East 6.9 mph - N/A   Clear